Location: Beuvrequen
(50.8014°N, 1.6652°E)
Time: 03:49:35
(UTC+00:00)

Genesis I - Pass Details

Date: 16 October 2021
Orbit: 469 x 547 km, 64.5° (Epoch: 28 November)

Event Time Altitude Azimuth Distance (km) Brightness Sun altitude
Rises 17:28:21 0° 319° (NW) 2,715 7.4 -5.4°
Reaches altitude 10° 17:30:34 10° 322° (NW) 1,825 6.4 -5.8°
Maximum altitude 17:34:40 69° 45° (NE) 591 3.3 -6.4°
Drops below altitude 10° 17:38:45 10° 130° (SE) 1,818 5.6 -7.1°
Sets 17:40:58 0° 133° (SE) 2,705 6.5 -7.4°
